Grand Junction, CO

4:16 AM MDT on August 20, 2019 (GMT -0600)
Walker

Weather History for KGJT - May, 2019

Change the Weather History Date:

Friday, May 24, 2019

  Actual Average Record
Temperature  
Mean Temperature 54 °F 64 °F  
Max Temperature 65 °F 79 °F 94 °F (2005)
Min Temperature 42 °F 49 °F 37 °F (1971)
Degree Days  
Heating Degree Days 11 3  
Month to date heating degree days 222 137  
Since 1 July heating degree days 5619 5571  
Cooling Degree Days 0 2  
Month to date cooling degree days 11 28  
Year to date cooling degree days 12 31  
Growing Degree Days 3 (Base 50)    
Moisture  
Dew Point 37 °F    
Average Humidity 59    
Maximum Humidity 83    
Minimum Humidity 34    
Precipitation  
Precipitation 0.00 in 0.02 in 1.83 in (1906)
Month to date precipitation 0.64 0.71  
Year to date precipitation 5.69 3.66  
Snow  
Snow 0.00 in 0.00 in 0.00 in (2002)
Month to date snowfall 0.0 0.1  
Since 1 July snowfall 17.4 19.1  
Snow Depth 0.00 in    
Sea Level Pressure  
Sea Level Pressure 29.93 in    
Wind  
Wind Speed 6 mph (ENE)    
Max Wind Speed 15 mph    
Max Gust Speed 20 mph    
Visibility 10 miles    
Events      
T = Trace of Precipitation, MM = Missing Value Source: NWS Daily Summary

Daily Weather History Graph

Daily Weather History Graph

Search for Another Location

Airport or City:

Astronomy

May. 24, 2019 Rise Set
Actual Time 5:54 AM MDT 8:28 PM MDT
Civil Twilight 5:23 AM MDT 8:59 PM MDT
Nautical Twilight 4:44 AM MDT 9:37 PM MDT
Astronomical Twilight 4:02 AM MDT 10:20 PM MDT
Moon 12:55 AM MDT (5/24) 10:57 AM MDT (5/24)
Length of Visible Light 15h 35m
Length of Day
14h 33m
Waning Gibbous, 68% of the Moon is Illuminated
May 24
Waning Gibbous
May 26
Last Quarter
Jun 3
New
Jun 10
First Quarter
Jun 17
Full

Hourly Weather History & Observations

Time (MDT) Temp. Windchill Dew Point Humidity Pressure Visibility Wind Dir Wind Speed Gust Speed Precip Events Conditions
12:53 AM 46.0 °F 44.8 °F 39.0 °F 76% 29.96 in 10.0 mi East 3.5 mph - N/A   Overcast
1:53 AM 45.0 °F 42.6 °F 39.9 °F 82% 29.96 in 10.0 mi East 4.6 mph - N/A   Overcast
2:53 AM 46.9 °F - 37.0 °F 68% 29.94 in 10.0 mi SE 6.9 mph - N/A   Overcast
3:53 AM 44.1 °F 42.5 °F 37.0 °F 76% 29.94 in 10.0 mi ENE 3.5 mph - N/A   Overcast
4:53 AM 44.1 °F 41.5 °F 37.9 °F 79% 29.96 in 10.0 mi NE 4.6 mph - N/A   Overcast
5:53 AM 44.1 °F 42.5 °F 35.1 °F 71% 29.99 in 10.0 mi Variable 3.5 mph - N/A   Partly Cloudy
6:53 AM 44.1 °F - 39.0 °F 82% 30.00 in 10.0 mi Calm Calm - N/A   Mostly Cloudy
7:53 AM 51.1 °F - 35.1 °F 54% 29.97 in 10.0 mi East 6.9 mph - N/A   Mostly Cloudy
8:53 AM 53.1 °F - 37.0 °F 55% 29.97 in 10.0 mi ESE 6.9 mph - N/A   Overcast
9:53 AM 55.9 °F - 33.1 °F 42% 29.96 in 10.0 mi SSE 9.2 mph - N/A   Mostly Cloudy
10:53 AM 59.0 °F - 34.0 °F 39% 29.95 in 10.0 mi SSE 12.7 mph - N/A   Mostly Cloudy
11:53 AM 59.0 °F - 33.1 °F 38% 29.94 in 10.0 mi SE 10.4 mph - N/A   Overcast
12:53 PM 59.0 °F - 35.1 °F 41% 29.94 in 10.0 mi West 9.2 mph - N/A   Overcast
1:53 PM 59.0 °F - 35.1 °F 41% 29.93 in 10.0 mi NW 9.2 mph - N/A   Overcast
2:53 PM 60.1 °F - 35.1 °F 39% 29.91 in 10.0 mi WNW 4.6 mph - N/A   Overcast
3:53 PM 61.0 °F - 36.0 °F 39% 29.90 in 10.0 mi WNW 5.8 mph - N/A   Mostly Cloudy
4:53 PM 64.9 °F - 37.0 °F 36% 29.87 in 10.0 mi WNW 9.2 mph - N/A   Overcast
5:53 PM 64.9 °F - 36.0 °F 34% 29.86 in 10.0 mi West 8.1 mph - N/A   Scattered Clouds
6:53 PM 61.0 °F - 37.0 °F 41% 29.87 in 10.0 mi NW 6.9 mph - N/A   Mostly Cloudy
7:53 PM 59.0 °F - 39.9 °F 49% 29.86 in 10.0 mi NW 3.5 mph - N/A   Partly Cloudy
8:53 PM 53.1 °F - 44.1 °F 71% 29.88 in 10.0 mi East 4.6 mph - N/A   Mostly Cloudy
9:53 PM 50.0 °F - 44.1 °F 80% 29.90 in 10.0 mi Calm Calm - N/A   Partly Cloudy
10:53 PM 48.9 °F - 41.0 °F 74% 29.91 in 10.0 mi ENE 4.6 mph - N/A   Clear
11:53 PM 50.0 °F - 39.0 °F 66% 29.89 in 10.0 mi ENE 6.9 mph - N/A   Clear